CDT,Max TemperatureF,Mean TemperatureF,Min TemperatureF,Max Dew PointF,MeanDew PointF,Min DewpointF,Max Humidity, Mean Humidity, Min Humidity, Max Sea Level PressureIn, Mean Sea Level PressureIn, Min Sea Level PressureIn, Max VisibilityMiles, Mean VisibilityMiles, Min VisibilityMiles, Max Wind SpeedMPH, Mean Wind SpeedMPH, Max Gust SpeedMPH,PrecipitationIn, CloudCover, Events, WindDirDegrees
2011-10-1,83,64,44,50,42,37,76,51,26,30.05,29.98,29.93,10,10,10,14,8,18,0.00,0,,149
2011-10-2,88,67,45,50,45,41,92,57,21,29.97,29.92,29.86,10,10,10,20,8,25,0.00,0,,111
2011-10-3,79,60,41,54,47,42,92,65,37,30.00,29.97,29.89,10,10,8,12,4,15,0.00,0,,57
2011-10-4,84,65,45,54,50,45,100,67,34,29.97,29.86,29.69,10,10,9,21,8,28,T,1,Rain-Thunderstorm,124
2011-10-5,86,75,64,47,43,39,45,34,23,29.69,29.65,29.60,10,10,10,36,22,46,0.00,0,,163
2011-10-6,74,67,60,59,51,43,61,49,37,29.64,29.57,29.45,10,9,3,32,21,44,0.52,3,Rain-Thunderstorm,147
2011-10-7,64,59,54,58,48,33,90,62,34,29.72,29.48,29.34,10,10,9,40,21,53,T,4,Thunderstorm,191
2011-10-8,59,54,49,48,44,40,77,65,53,30.25,30.03,29.74,10,10,10,22,10,29,0.00,5,,299
2011-10-9,53,49,45,49,44,39,100,83,66,30.29,30.16,29.95,10,8,3,15,6,17,0.46,7,Rain,48
2011-10-10,60,52,43,49,47,43,100,81,62,29.92,29.83,29.73,10,9,5,14,8,17,0.07,7,Rain,221
2011-10-11,70,54,37,50,43,37,100,70,40,29.73,29.67,29.60,10,10,9,14,4,16,0.00,0,,118
2011-10-12,67,55,42,47,43,41,89,66,42,29.87,29.77,29.67,10,10,10,23,9,31,T,1,,293
2011-10-13,61,49,36,42,38,35,93,68,42,29.89,29.84,29.78,10,10,6,28,11,39,0.02,2,Rain,294
2011-10-14,53,44,35,41,36,32,92,71,50,30.03,29.97,29.89,10,10,5,22,10,29,T,4,Rain,300
2011-10-15,47,38,29,42,36,30,100,83,65,30.01,29.97,29.90,10,10,7,12,3,15,0.04,5,Rain,277
2011-10-16,53,44,35,38,32,27,92,65,38,30.12,30.05,29.98,10,10,10,23,11,29,0.00,1,,295
2011-10-17,56,43,29,30,27,24,85,58,30,30.17,30.08,30.01,10,10,10,30,11,38,0.00,0,,310
2011-10-18,53,39,25,35,30,25,85,65,44,30.28,30.24,30.17,10,10,10,20,8,23,0.00,3,,317
2011-10-19,47,33,19,28,23,19,92,63,34,30.32,30.25,30.18,10,10,10,9,4,13,0.00,0,,88
2011-10-20,55,39,22,30,26,21,100,66,32,30.17,30.04,29.92,10,8,0,16,7,20,0.00,1,Fog,142
2011-10-21,63,47,31,40,35,28,92,66,39,30.14,30.05,29.92,10,10,8,14,5,18,0.00,0,,310
2011-10-22,68,48,28,44,35,27,92,65,37,30.13,30.00,29.88,10,10,6,18,6,22,T,2,Rain,271
2011-10-23,60,49,37,44,39,33,100,73,46,29.96,29.91,29.86,10,10,10,15,5,18,0.01,2,Rain,302
2011-10-24,47,41,35,41,36,31,85,78,70,30.07,30.03,29.97,10,10,10,16,6,20,0.01,5,,342
2011-10-25,51,45,38,43,38,34,93,77,61,30.22,30.08,29.99,10,9,4,22,8,29,0.15,7,Rain,291
2011-10-26,49,39,28,36,31,26,96,73,49,30.26,30.20,30.11,10,10,10,22,7,26,0.01,4,Rain,293
2011-10-27,53,37,21,33,26,19,96,67,38,30.13,30.06,29.97,10,10,10,20,6,26,0.00,2,,279
2011-10-28,53,39,25,26,22,17,88,57,26,30.21,30.15,30.06,10,10,10,21,7,30,0.00,0,,300
2011-10-29,57,42,26,37,26,21,85,59,32,30.03,29.88,29.76,10,10,5,24,10,33,0.06,5,Rain,177
2011-10-30,51,39,27,30,27,25,78,58,38,30.04,30.00,29.90,10,10,10,28,10,36,0.00,0,,304
2011-10-31,68,48,27,41,32,24,92,62,32,29.99,29.82,29.70,10,10,10,23,8,29,T,2,,204